TimeIST,TemperatureF,Dew PointF,Humidity,Sea Level PressureIn,VisibilityMPH,Wind Direction,Wind SpeedMPH,Gust SpeedMPH,PrecipitationIn,Events,Conditions,WindDirDegrees,DateUTC
12:10 AM,78.8,66.2,65,29.83,1.6,Calm,Calm,-,N/A,,Smoke,0,2012-11-07 18:40:00
12:40 AM,80.6,62.6,54,29.83,1.4,Calm,Calm,-,N/A,,Smoke,0,2012-11-07 19:10:00
1:10 AM,77.0,66.2,69,29.80,1.4,Calm,Calm,-,N/A,,Smoke,0,2012-11-07 19:40:00
1:40 AM,78.8,66.2,65,29.80,1.4,ENE,3.5,-,N/A,,Smoke,60,2012-11-07 20:10:00
2:10 AM,78.8,66.2,65,29.80,1.3,SSE,3.5,-,N/A,,Smoke,150,2012-11-07 20:40:00
2:40 AM,78.8,64.4,61,29.80,1.3,ESE,4.6,-,N/A,,Smoke,110,2012-11-07 21:10:00
3:10 AM,77.0,64.4,65,29.77,1.4,SE,3.5,-,N/A,,Smoke,130,2012-11-07 21:40:00
3:40 AM,77.0,66.2,69,29.77,1.4,Calm,Calm,-,N/A,,Smoke,0,2012-11-07 22:10:00
4:10 AM,75.2,66.2,73,29.77,1.4,Calm,Calm,-,N/A,,Smoke,0,2012-11-07 22:40:00
4:40 AM,75.2,64.4,69,29.77,1.4,Calm,Calm,-,N/A,,Smoke,0,2012-11-07 23:10:00
5:10 AM,77.0,64.4,65,29.77,1.4,Calm,Calm,-,N/A,,Smoke,0,2012-11-07 23:40:00
5:30 AM,67,64,87,29.78,1,Calm,Calm,,,,Haze,,2012-11-08 00:00:00
5:40 AM,75.2,64.4,69,29.80,1.4,Calm,Calm,-,N/A,,Smoke,0,2012-11-08 00:10:00
6:10 AM,75.2,64.4,69,29.80,1.4,East,3.5,-,N/A,,Smoke,80,2012-11-08 00:40:00
6:40 AM,75.2,64.4,69,29.80,1.1,East,4.6,-,N/A,,Smoke,80,2012-11-08 01:10:00
7:10 AM,75.2,64.4,69,29.83,1.1,Variable,3.5,-,N/A,,Smoke,0,2012-11-08 01:40:00
7:40 AM,75.2,64.4,69,29.83,1.1,ENE,3.5,-,N/A,,Smoke,70,2012-11-08 02:10:00
8:10 AM,77.0,64.4,65,29.83,1.1,ESE,4.6,-,N/A,,Smoke,110,2012-11-08 02:40:00
8:30 AM,73,67,75,29.85,1,Calm,Calm,,,,Haze,,2012-11-08 03:00:00
8:40 AM,80.6,66.2,61,29.86,1.1,ESE,3.5,-,N/A,,Smoke,120,2012-11-08 03:10:00
9:10 AM,80.6,64.4,58,29.86,1.1,SSE,3.5,-,N/A,,Smoke,160,2012-11-08 03:40:00
9:40 AM,84.2,64.4,51,29.86,1.4,South,4.6,-,N/A,,Smoke,170,2012-11-08 04:10:00
10:10 AM,84.2,64.4,51,29.86,1.6,SE,3.5,-,N/A,,Smoke,130,2012-11-08 04:40:00
11:10 AM,89.6,60.8,38,29.86,1.7,Variable,3.5,-,N/A,,Smoke,0,2012-11-08 05:40:00
11:40 AM,87.8,68.0,52,29.83,1.7,SW,9.2,-,N/A,,Smoke,220,2012-11-08 06:10:00
12:40 PM,89.6,68.0,49,29.80,1.9,West,8.1,-,N/A,,Smoke,260,2012-11-08 07:10:00
1:10 PM,89.6,64.4,43,29.80,1.9,SSW,6.9,-,N/A,,Smoke,210,2012-11-08 07:40:00
1:40 PM,89.6,64.4,43,29.77,2.5,WSW,9.2,-,N/A,,Smoke,250,2012-11-08 08:10:00
2:10 PM,91.4,62.6,38,29.77,2.5,SW,9.2,20.7,N/A,,Smoke,230,2012-11-08 08:40:00
2:40 PM,91.4,57.2,31,29.77,2.5,SW,9.2,-,N/A,,Smoke,220,2012-11-08 09:10:00
3:40 PM,89.6,66.2,46,29.74,3.1,WSW,11.5,-,N/A,,Smoke,250,2012-11-08 10:10:00
4:10 PM,87.8,66.2,49,29.74,3.1,SW,10.4,-,N/A,,Smoke,230,2012-11-08 10:40:00
4:40 PM,87.8,66.2,49,29.77,3.1,WSW,10.4,-,N/A,,Smoke,240,2012-11-08 11:10:00
5:10 PM,84.2,66.2,55,29.77,2.8,West,10.4,-,N/A,,Smoke,260,2012-11-08 11:40:00
5:30 PM,85,68,47,29.77,1,West,4.6,,,,Smoke,270,2012-11-08 12:00:00
5:40 PM,84.2,68.0,58,29.77,2.5,West,8.1,-,N/A,,Smoke,280,2012-11-08 12:10:00
6:10 PM,82.4,69.8,66,29.77,2.2,West,6.9,-,N/A,,Smoke,280,2012-11-08 12:40:00
7:10 PM,82.4,69.8,66,29.80,1.9,WNW,5.8,-,N/A,,Smoke,290,2012-11-08 13:40:00
7:40 PM,82.4,69.8,66,29.80,2.2,NW,4.6,-,N/A,,Haze,310,2012-11-08 14:10:00
8:10 PM,82.4,69.8,66,29.83,2.2,WNW,4.6,-,N/A,,Haze,290,2012-11-08 14:40:00
8:40 PM,80.6,68.0,65,29.83,2.2,WNW,4.6,-,N/A,,Haze,290,2012-11-08 15:10:00
9:10 PM,80.6,68.0,65,29.83,2.2,WNW,3.5,-,N/A,,Smoke,290,2012-11-08 15:40:00
9:40 PM,80.6,69.8,70,29.83,2.2,NNW,3.5,-,N/A,,Smoke,330,2012-11-08 16:10:00
10:10 PM,80.6,69.8,70,29.86,-9999.0,WNW,3.5,-,N/A,,Smoke,300,2012-11-08 16:40:00
10:40 PM,78.8,69.8,74,29.86,-9999.0,NNW,3.5,-,N/A,,Smoke,330,2012-11-08 17:10:00
11:30 PM,70,66,84,29.85,1,Calm,Calm,,,,Haze,,2012-11-08 18:00:00
11:40 PM,78.8,69.8,74,29.86,1.7,Calm,Calm,-,N/A,,Smoke,0,2012-11-08 18:10:00